Regional Weather Roundup
Issued by NWS

Home | Current Version | Previous Version | Graphics & Text | Print | Product List | Glossary On
Versions: 1 2 3 4 5 6 7 8 9 10 11 12 13 14 15 16 17 18 19 20 21 22 23 24 25 26 27 28 29 30 31 32 33 34 35 36 37 38 39 40 41 42 43 44 45 46 47 48 49 50
551
ASUS44 KLIX 262211
RWRLA
LOUISIANA WEATHER ROUNDUP
NATIONAL WEATHER SERVICE NEW ORLEANS LA
500 PM CDT THU MAR 26 2015

NOTE: "FAIR" INDICATES FEW OR NO CLOUDS BELOW 12,000 FEET WITH NO
      SIGNIFICANT WEATHER AND/OR OBSTRUCTIONS TO VISIBILITY.
      SKY/WX - SKY CONDITION AND SIGNIFICANT WEATHER.
      TMP - AIR TEMPERATURE.    DP   - DEWPOINT TEMPERATURE.
      RH  - RELATIVE HUMIDITY.  PRES - PRESSURE.
      HX  - HEAT INDEX.         WCI  - WIND CHILL INDEX.

*  THESE STATIONS ARE NOT NWS OR FAA STATIONS AND ARE NOT UNDER
   NWS QUALITY CONTROL.

LAZ040-048-061>063-065-066-069-262300-
SOUTHEAST LOUISIANA

CITY           SKY/WX    TMP DP  RH WIND       PRES   REMARKS
N.O. AUDUBON     N/A     64  64  97 MISG        N/A
N.O. INTL ARPT CLOUDY    63  58  83 S7        29.83R
N.O. LAKEFRONT CLOUDY    66  57  72 SE8       29.80F
SLIDELL        CLOUDY    66  63  90 CALM      29.82F
BATON ROUGE    CLOUDY    68  61  78 SW6       29.83R
BOOTHVILLE     LGT RAIN  67  66  97 S3        29.83F FOG
BELLE CHASSE   LGT RAIN  64  61  90 SE10      29.77F FOG
BOGALUSA*      LGT RAIN  71  64  79 W7        29.85R
GALLIANO*      TSTM      57  57  99 MISG      29.79F
NEW ROADS*     LGT RAIN  66  65  96 S5        29.83S
GONZALES*      FAIR      65  65 100 CALM      29.83R
HAMMOND*       CLOUDY    68  57  68 CALM      29.82F
HOUMA*         PTSUNNY   63  63 100 SE13      29.78F
PORT FOURCHON* CLEAR     66  64  94 S6        29.89F FOG

$$

LAZ041-044-053-054-262300-
SOUTHWEST LOUISIANA

CITY           SKY/WX    TMP DP  RH WIND       PRES   REMARKS
LAKE CHARLES   CLOUDY    66  56  70 NW16      29.89S
LAFAYETTE      LGT RAIN  68  65  90 SW5       29.85R
PATTERSON      CLOUDY    64  61  88 SW8       29.87R
SALT POINT       N/A     62  60  93 VRB3      29.85R
NEW IBERIA     CLOUDY    70  64  81 S14       29.85S
CHENAULT AIRPK NOT AVBL

$$

LAZ027-028-262300-
CENTRAL LOUISIANA

CITY           SKY/WX    TMP DP  RH WIND       PRES   REMARKS
FORT POLK      CLOUDY    59  53  81 NW16      29.93R
ALEXANDRIA INT CLOUDY    60  55  83 NW14G28   29.90R
ALEXANDRIA     CLOUDY    63  57  81 NW8       29.89R

$$

LAZ001-002-262300-
NORTHWEST LOUISIANA

CITY           SKY/WX    TMP DP  RH WIND       PRES   REMARKS
SHREVEPORT     CLOUDY    58  48  69 N17G26    30.00S
BARKSDALE AFB  CLOUDY    57  47  70 N14       30.00R
DTN SHREVEPORT CLOUDY    57  48  72 N9        30.01R

$$

LAZ014-016-262300-
NORTHEAST LOUISIANA

CITY           SKY/WX    TMP DP  RH WIND       PRES   REMARKS
MONROE         CLOUDY    55  49  80 N17G24    29.95R
TALLULAH       LGT RAIN  56  51  84 N20       29.91R

$$




USA.gov is the U.S. government's official web portal to all federal, state and local government web resources and services.